Location: Barrialito
(10.3588°N, 66.9747°W)
Time: 09:15:59
(UTC+00:00)

Cosmos 1862 Rocket - Pass Details

Date: 08 July 2022
Orbit: 603 x 633 km, 82.5° (Epoch: 13 August)

Event Time Altitude Azimuth Distance (km) Brightness Sun altitude
Rises 08:20:50 0° 1° (N) 2,846 7.4 -25.3°
Reaches altitude 10° 08:23:03 10° 4° (N) 1,945 6.5 -24.8°
Maximum altitude 08:27:18 63° 85° (E) 675 3.9 -23.9°
Enters shadow 08:29:11 32° 156° (SSE) 1,052 4.6 -23.5°
